Voltar ao catálogo

FREGAT DEB

AtivoUNKNOWN
NORAD 45979·DEBRIS·🇷🇺 Russia

Lançado Jul 18, 2011 de Baikonur Cosmodrome

Loading…

Próximas Passagens (próximas 24 horas)

TLE

AtualizadoSource: Space-Track

Época: Sep 13, 2026, 14:58 UTC

1 45979U 11037GL  26256.62396195  .00000521  00000-0  10317-2 0  9990
2 45979  51.5257 359.6074 1894690 235.0668 105.7453 10.63296065238356

Acompanhe FREGAT DEB em tempo real com AllMySat

Download on the App Store